Location: Newark
(54.0500°N, 12.8333°E)
Time: 22:38:13
(UTC+00:00)

A-11 Canister half - Visible Passes

Search period start: 18 January 2020 00:00
Search period end: 28 January 2020 00:00
Orbit: 1516 x 1683 km, 47.2° (Epoch: 18 January)

Date Brightness Start Highest point End Pass type
(mag) Time Alt. Az. Time Alt. Az. Time Alt. Az.
18 Jan 10.2 01:39:50 28° ESE 01:39:50 28° ESE 01:44:09 10° E visible
18 Jan 9.0 03:38:02 53° SSW 03:39:27 58° S 03:48:31 10° ESE visible
18 Jan 9.5 05:36:13 16° W 05:43:21 45° SSW 05:52:07 10° SE visible
19 Jan 10.5 01:18:09 22° E 01:18:09 22° E 01:21:15 10° E visible
19 Jan 9.0 03:16:20 58° S 03:16:35 58° S 03:25:38 10° ESE visible
19 Jan 9.5 05:14:31 21° W 05:20:31 46° SSW 05:29:18 10° SE visible
20 Jan 10.8 00:56:27 17° E 00:56:27 17° E 00:58:21 10° E visible
20 Jan 9.2 02:54:39 56° SSE 02:54:39 56° SSE 03:02:45 10° ESE visible
20 Jan 9.4 04:52:50 27° WSW 04:57:41 48° SSW 05:06:29 10° SE visible
21 Jan 11.0 00:34:46 12° E 00:34:46 12° E 00:35:27 10° E visible
21 Jan 9.4 02:32:57 48° SE 02:32:57 48° SE 02:39:52 10° E visible
21 Jan 9.3 04:31:09 34° WSW 04:34:50 49° SSW 04:43:39 10° SE visible
21 Jan 10.2 06:31:04 10° W 06:38:05 25° SW 06:45:12 10° S visible
22 Jan 9.7 02:11:17 40° ESE 02:11:17 40° ESE 02:17:00 10° E visible
22 Jan 9.2 04:09:29 41° WSW 04:11:59 50° SSW 04:20:49 10° SE visible
22 Jan 10.1 06:08:06 10° W 06:15:17 26° SW 06:22:34 10° S visible
23 Jan 10.1 01:49:37 32° ESE 01:49:37 32° ESE 01:54:07 10° E visible
23 Jan 9.1 03:47:48 48° SW 03:49:08 51° SSW 03:58:00 10° SE visible
23 Jan 10.0 05:46:00 13° W 05:52:30 27° SW 05:59:55 10° SSE visible
24 Jan 10.4 01:27:58 25° ESE 01:27:58 25° ESE 01:31:15 10° E visible
24 Jan 9.1 03:26:10 52° SSW 03:26:18 52° SSW 03:35:10 10° ESE visible
24 Jan 9.9 05:24:22 17° W 05:29:42 29° SW 05:37:15 10° SSE visible
25 Jan 10.7 01:06:21 18° E 01:06:21 18° E 01:08:22 10° E visible
25 Jan 9.2 03:04:33 50° S 03:04:33 50° S 03:12:20 10° ESE visible
25 Jan 9.8 05:02:46 21° WSW 05:06:54 30° SW 05:14:34 10° SSE visible
26 Jan 11.0 00:44:46 13° E 00:44:46 13° E 00:45:30 10° E visible
26 Jan 9.5 02:42:59 44° SSE 02:42:59 44° SSE 02:49:30 10° ESE visible
26 Jan 9.7 04:41:11 26° WSW 04:44:05 31° SW 04:51:53 10° SSE visible
27 Jan 9.8 02:21:26 36° SE 02:21:26 36° SE 02:26:39 10° ESE visible
27 Jan 9.6 04:19:38 31° SW 04:21:17 33° SW 04:29:11 10° SSE visible
27 Jan 10.6 06:22:14 10° WSW 06:23:42 10° SW 06:25:11 10° SW visible
